Change the Weather History Date:

Monday, October 17, 2011

  Actual Average Record
Temperature  
Mean Temperature 51 °F 54 °F  
Max Temperature 64 °F 67 °F 78 °F (1998)
Min Temperature 38 °F 42 °F 33 °F (2001)
Degree Days  
Heating Degree Days 14 11  
Month to date heating degree days 100 152  
Since 1 July heating degree days 203 237  
Cooling Degree Days 0 0  
Month to date cooling degree days 0 11  
Year to date cooling degree days 1170 924  
Growing Degree Days 1 (Base 50)    
Moisture  
Dew Point 36 °F    
Average Humidity 60    
Maximum Humidity 92    
Minimum Humidity 27    
Precipitation  
Precipitation 0.02 in 0.12 in 0.77 in (2000)
Month to date precipitation 0.47 1.95  
Year to date precipitation 44.35 38.49  
Sea Level Pressure  
Sea Level Pressure 29.93 in    
Wind  
Wind Speed 4 mph (West)    
Max Wind Speed 10 mph    
Max Gust Speed 14 mph    
Visibility 10 miles    
Events Rain    
T = Trace of Precipitation, MM = Missing Value Source: NWS Daily Summary

Daily Weather History Graph

Daily Weather History Graph

Search for Another Location

Airport or City:

Trip Planner

Search our weather history database for the weather conditions in past years. The results will help you decide how hot, cold, wet, or windy it might be!

Date:

Astronomy

Oct. 17, 2011 Rise Set
Actual Time 7:57 AM EDT 7:05 PM EDT
Civil Twilight 7:30 AM EDT 7:32 PM EDT
Nautical Twilight 6:59 AM EDT 8:03 PM EDT
Astronomical Twilight 6:28 AM EDT 8:34 PM EDT
Moon 10:47 PM EDT (10/17) 1:01 PM EDT (10/17)
Length of Visible Light 12h 01m
Length of Day
11h 07m
Waning Gibbous, 74% of the Moon is Illuminated
Oct 17
Waning Gibbous
Oct 19
Last Quarter
Oct 26
New
Nov 2
First Quarter
Nov 10
Full

Hourly Weather History & Observations

Time (EDT) Temp. Dew Point Humidity Pressure Visibility Wind Dir Wind Speed Gust Speed Precip Events Conditions
12:53 AM 55.0 °F 37.0 °F 51% 29.93 in 10.0 mi WNW 4.6 mph - N/A   Overcast
1:53 AM 51.1 °F 37.0 °F 59% 29.94 in 10.0 mi Calm Calm - N/A   Clear
2:53 AM 46.9 °F 37.0 °F 68% 29.95 in 10.0 mi WNW 3.5 mph - N/A   Clear
4:53 AM 43.0 °F 37.0 °F 80% 29.95 in 10.0 mi Calm Calm - N/A   Clear
5:53 AM 41.0 °F 36.0 °F 82% 29.96 in 10.0 mi Calm Calm - N/A   Clear
6:53 AM 39.9 °F 37.0 °F 89% 29.96 in 10.0 mi Calm Calm - N/A   Clear
7:53 AM 39.9 °F 36.0 °F 86% 29.97 in 10.0 mi Calm Calm - N/A   Clear
8:53 AM 44.1 °F 39.0 °F 82% 29.98 in 10.0 mi Calm Calm - N/A   Clear
9:53 AM 50.0 °F 39.0 °F 66% 29.99 in 10.0 mi West 5.8 mph - N/A   Clear
10:53 AM 55.0 °F 37.0 °F 51% 29.99 in 10.0 mi West 5.8 mph - N/A   Clear
11:53 AM 57.9 °F 32.0 °F 37% 29.98 in 10.0 mi Variable 3.5 mph - N/A   Clear
12:53 PM 61.0 °F 32.0 °F 34% 29.95 in 10.0 mi West 5.8 mph - N/A   Clear
1:53 PM 61.0 °F 32.0 °F 34% 29.94 in 10.0 mi West 6.9 mph - N/A   Clear
2:53 PM 63.0 °F 30.9 °F 30% 29.91 in 10.0 mi SW 8.1 mph - N/A   Clear
3:53 PM 62.1 °F 30.9 °F 31% 29.88 in 10.0 mi Variable 3.5 mph - N/A   Clear
4:53 PM 62.1 °F 28.0 °F 28% 29.88 in 10.0 mi WNW 5.8 mph - N/A   Clear
5:53 PM 61.0 °F 30.0 °F 31% 29.88 in 10.0 mi WSW 5.8 mph - N/A   Clear
6:53 PM 57.9 °F 32.0 °F 37% 29.91 in 10.0 mi WSW 3.5 mph - N/A   Mostly Cloudy
7:53 PM 55.0 °F 37.9 °F 53% 29.91 in 10.0 mi Calm Calm - 0.00 in Rain Light Rain
8:53 PM 53.1 °F 39.0 °F 59% 29.91 in 10.0 mi Calm Calm - 0.00 in   Overcast
9:53 PM 50.0 °F 41.0 °F 71% 29.91 in 10.0 mi NW 4.6 mph - 0.02 in   Overcast
10:53 PM 48.9 °F 41.0 °F 74% 29.90 in 10.0 mi North 6.9 mph - N/A   Mostly Cloudy
11:53 PM 48.0 °F 39.9 °F 74% 29.89 in 10.0 mi NNW 5.8 mph - N/A   Overcast